sat.trackr.live / text

‹ back to catalog

STARLINK-30538

NORAD 57994 · 2023-153D

PAYLOAD ACTIVE UNKNOWN

§ Identity

Operator
Country
US
Launch date
2023-10-05
Launch site
AFETR
Launch vehicle
Mass (kg)
RCS (m²)

Purposes: comms

External: N2YO · Heavens-Above · Gunter

§ Orbital elements

Epoch: 2026-05-24T23:35:20.209056Z

Period
94.27 min
Inclination
43.0053°
Eccentricity
0.0001881
Mean motion
15.27567288 rev/d
Perigee alt
481.8 km
Apogee alt
484.4 km
Semi-major
6,861.2 km
B*
-5.4815e-5
RAAN
356.2618°
Arg perigee
296.9645°
Mean anomaly
63.1015°
Rev number
14,646

§ Raw data

STARLINK-305381 57994U 23153D   26144.98287279 -.00001770  00000+0 -54815-4 0  99902 57994  43.0053 356.2618 0001881 296.9645  63.1015 15.27567288146469

JSON: /api/v1/satellites/57994 · /tle

For live sub-satellite position, see the globe view (requires WebGL).

§ Visibility from observer

Set your observer location to see the next 7 days of passes ≥ 10°. The values pass through the URL so the page stays shareable.

No JS? Fill the form by hand. The geolocation button needs JavaScript.